Terminal Aerodrome Forecast
Issued by NWS Green Bay, WI

Home | Current Version | Previous Version | Graphics & Text | Print | Product List | Glossary On
Versions: 1 2 3 4 5 6 7 8 9 10 11 12 13 14 15 16 17 18 19 20 21 22 23 24 25 26 27 28 29 30 31 32 33 34 35 36 37 38 39 40 41 42 43 44 45 46 47 48 49 50
000
FTUS43 KGRB 290500
TAFGRB
TAF
KGRB 290534Z 2906/3006 36009KT P6SM FEW025
     FM290800 34006KT P6SM FEW025 SCT100
     FM291300 34006KT P6SM FEW025 BKN100=

USA.gov is the U.S. government's official web portal to all federal, state and local government web resources and services.